Flag for Norway

Past Weather in Vadsø, Norway — Yesterday and Last 2 Weeks

Now
50 °F

Passing clouds.


Feels Like: 43 °F
Forecast: 47 / 41 °F
Wind: 24 mph from West

Location: Vadso
Current Time: Sep 25, 2020 at 10:56:07 pm
Latest Report: Sep 25, 2020 at 10:20 pm
Visibility: N/A
Pressure29.53 "Hg
Humidity: 76%
Dew Point: 43 °F
Location of VadsøLocation

Past Weather in Vadsø — Graph

°F

Vadsø Temperature Yesterday

Maximum temperature yesterday: 50 °F (at 11:50 am)
Minimum temperature yesterday: 37 °F (at 8:50 pm)
Average temperature yesterday: 45 °F

High & Low Weather Summary for the Past Weeks

 TemperatureHumidityPressure
High57 °F (Sep 25, 4:50 pm)100% (Sep 10, 10:20 pm)30.15 "Hg (Sep 10, 10:20 pm)
Low36 °F (Sep 21, 5:20 am)58% (Sep 17, 1:20 pm)28.62 "Hg (Sep 22, 12:20 am)
Average45 °F80%29.52 "Hg
* Reported Sep 10 10:20 pm — Sep 25 9:20 pm, Vadsø. Weather by CustomWeather, © 2020

Note: Actual official high and low records may vary slightly from our data, if they occured in-between our weather recording intervals... More about our weather records

Vadsø Weather History for the Previous 24 Hours

Scroll right to see more
 ConditionsComfort  
Time TempWeatherWind HumidityBarometerVisibility
9:20 pm
Fri, Sep 25
50 °FPassing clouds.30 mph76%29.47 "HgN/A
8:50 pm52 °FPassing clouds.31 mph72%29.45 "HgN/A
8:20 pm54 °FPassing clouds.28 mph67%29.42 "HgN/A
7:50 pm54 °FPartly cloudy.28 mph67%29.42 "HgN/A
7:20 pm52 °FPartly cloudy.17 mph82%29.42 "HgN/A
6:20 pm54 °FScattered showers. Passing clouds.20 mph77%29.36 "HgN/A
5:50 pm55 °FScattered showers. Partly cloudy.17 mph82%29.33 "HgN/A
5:20 pm55 °FPassing clouds.17 mph82%29.36 "HgN/A
4:50 pm57 °FPassing clouds.7 mph82%29.36 "HgN/A
4:20 pm55 °FPassing clouds.16 mph94%29.33 "HgN/A
3:50 pm55 °FPassing clouds.10 mph100%29.33 "HgN/A
2:50 pm52 °FBroken clouds.2 mph100%29.36 "HgN/A
2:20 pm50 °FBroken clouds.3 mph100%29.39 "HgN/A
1:50 pm48 °FDrizzle. Broken clouds.6 mph100%29.39 "Hg4 mi
1:20 pm48 °FDrizzle. Broken clouds.8 mph100%29.42 "Hg6 mi
12:50 pm48 °FDrizzle. Partly sunny.N/A100%29.42 "Hg6 mi
12:20 pm46 °FLight rain. Broken clouds.9 mph100%29.42 "HgN/A
11:50 am46 °FLight rain. Broken clouds.7 mph100%29.42 "HgN/A
11:20 am46 °FRain. Broken clouds.7 mph87%29.45 "HgN/A
9:50 am46 °FScattered showers. More clouds than sun.7 mph82%29.47 "HgN/A
9:20 am46 °FScattered showers. More clouds than sun.8 mph82%29.47 "HgN/A
7:50 am46 °FScattered showers. More clouds than sun.8 mph76%29.50 "HgN/A
7:20 am46 °FScattered showers. More clouds than sun.9 mph76%29.53 "HgN/A
6:50 am46 °FScattered showers. More clouds than sun.14 mph82%29.53 "HgN/A
6:20 am46 °FScattered showers. Partly sunny.14 mph82%29.53 "HgN/A
5:50 am45 °FPartly sunny.10 mph81%29.56 "HgN/A
5:20 am43 °FPartly sunny.9 mph87%29.56 "HgN/A
4:50 am45 °FPartly sunny.13 mph81%29.59 "HgN/A
4:20 am45 °FPartly sunny.13 mph81%29.62 "HgN/A
12:50 am41 °FClear.9 mph76%29.71 "Hg10 mi
11:50 pm
Thu, Sep 24
39 °FClear.7 mph81%29.71 "Hg10 mi
11:20 pm37 °FClear.6 mph87%29.74 "Hg10 mi
10:50 pm37 °FClear.5 mph81%29.74 "Hg10 mi
10:20 pm37 °FClear.3 mph81%29.74 "Hg10 mi
Weather by CustomWeather, © 2020

See weather overview